This demonstration page uses our WeatherBlox Daily Observations layout. Learn more.

Hourly Observations for June 12, 2020

Temp ( °F °C ) Dew Point ( °F °C ) Humidity (%) Winds ( mph kmh ) Pressure ( in mb ) Visibility ( mi km ) Precip ( " mm )
12:15 am 00:15 Cloudy 70 21 61 16 73 73 NNW 7 11 30.14 1021 10 16.0934 0 0
12:35 am 00:35 Cloudy 70 21 61 16 73 73 NNW 5 7 30.14 1021 10 16.0934 0 0
12:55 am 00:55 Mostly Cloudy 70 21 59 15 69 69 Calm 30.15 1021 10 16.0934 0 0
1:15 am 01:15 Mostly Cloudy 70 21 59 15 69 69 Calm 30.15 1021 10 16.0934 0 0
1:35 am 01:35 Mostly Cloudy 70 21 59 15 69 69 Calm 30.16 1021 10 16.0934 0 0
1:55 am 01:55 Mostly Cloudy 70 21 57 14 64 64 Calm 30.15 1021 10 16.0934 0 0
2:15 am 02:15 Mostly Cloudy 68 20 59 15 73 73 Calm 30.16 1021 10 16.0934 0 0
2:35 am 02:35 Mostly Cloudy 64 18 61 16 88 88 Calm 30.16 1021 10 16.0934 0 0
2:55 am 02:55 Partly Cloudy 64 18 61 16 88 88 Calm 30.16 1021 10 16.0934 0 0
3:15 am 03:15 Clear 63 17 61 16 94 94 Calm 30.16 1021 10 16.0934 0 0
3:35 am 03:35 Clear 63 17 59 15 88 88 Calm 30.17 1022 10 16.0934 0 0
3:55 am 03:55 Clear 64 18 57 14 78 78 Calm 30.16 1021 10 16.0934 0 0
4:15 am 04:15 Partly Cloudy 64 18 57 14 78 78 NW 10 17 30.16 1021 10 16.0934 0 0
4:35 am 04:35 Clear 63 17 55 13 77 77 NW 5 7 30.17 1022 10 16.0934 0 0
4:55 am 04:55 Clear 63 17 55 13 77 77 Calm 30.17 1022 10 16.0934 0 0
5:15 am 05:15 Clear 63 17 55 13 77 77 Calm 30.18 1022 10 16.0934 0 0
5:35 am 05:35 Clear 63 17 55 13 77 77 NNW 5 7 30.18 1022 10 16.0934 0 0
5:55 am 05:55 Sunny 63 17 55 13 77 77 NW 3 6 30.19 1022 10 16.0934 0 0
6:15 am 06:15 Sunny 63 17 57 14 83 83 Calm 30.19 1022 10 16.0934 0 0
6:35 am 06:35 Sunny 63 17 57 14 83 83 Calm 30.19 1022 10 16.0934 0 0
6:55 am 06:55 Sunny 64 18 59 15 83 83 Calm 30.19 1022 10 16.0934 0 0
7:15 am 07:15 Sunny 66 19 59 15 78 78 Calm 30.18 1022 10 16.0934 0 0
7:35 am 07:35 Sunny 68 20 57 14 69 69 Calm 30.18 1022 10 16.0934 0 0
7:55 am 07:55 Sunny 70 21 57 14 64 64 Calm 30.18 1022 10 16.0934 0 0
8:15 am 08:15 Sunny 72 22 59 15 65 65 Calm 30.19 1022 10 16.0934 0 0
8:35 am 08:35 Sunny 73 23 59 15 61 61 WNW 5 7 30.19 1022 10 16.0934 0 0
8:55 am 08:55 Sunny 73 23 59 15 61 61 WNW 6 9 30.19 1022 10 16.0934 0 0
9:15 am 09:15 Sunny 75 24 59 15 57 57 NW 6 9 30.19 1022 10 16.0934 0 0
9:35 am 09:35 Sunny 75 24 59 15 57 57 W 7 11 30.19 1022 10 16.0934 0 0
9:55 am 09:55 Sunny 77 25 59 15 54 54 W 8 13 30.17 1022 10 16.0934 0 0
10:15 am 10:15 Sunny 77 25 57 14 51 51 NW 10 17 30.17 1022 10 16.0934 0 0
10:35 am 10:35 Sunny 79 26 55 13 45 45 NNW 12 19 30.17 1022 10 16.0934 0 0
10:55 am 10:55 Sunny 79 26 55 13 45 45 NNW 9 15 30.16 1021 10 16.0934 0 0
11:15 am 11:15 Sunny 79 26 54 12 42 42 N 8 13 30.16 1021 10 16.0934 0 0
11:35 am 11:35 Sunny 81 27 54 12 39 39 NNW 9 15 30.16 1021 10 16.0934 0 0
11:55 am 11:55 Sunny 81 27 54 12 39 39 WNW 8 13 30.16 1021 10 16.0934 0 0
12:15 pm 12:15 Sunny 81 27 55 13 42 42 NNW 13 20 30.16 1021 10 16.0934 0 0
12:35 pm 12:35 Sunny 81 27 55 13 42 42 NNW 14 22 30.15 1021 10 16.0934 0 0
12:55 pm 12:55 Sunny 81 27 55 13 42 42 N 5 7 30.14 1021 10 16.0934 0 0
1:15 pm 13:15 Sunny 81 27 54 12 39 39 NNW 7 11 30.14 1021 10 16.0934 0 0
1:35 pm 13:35 Sunny 82 28 55 13 40 40 WNW 5 7 30.13 1020 10 16.0934 0 0
1:55 pm 13:55 Mostly Cloudy 81 27 54 12 39 39 NW 8 13 30.13 1020 10 16.0934 0 0
2:15 pm 14:15 Partly Cloudy 82 28 55 13 40 40 NW 5 7 30.13 1020 10 16.0934 0 0
2:35 pm 14:35 Partly Cloudy 82 28 55 13 40 40 NW 6 9 30.11 1020 10 16.0934 0 0
2:55 pm 14:55 Partly Cloudy 82 28 55 13 40 40 WNW 10 17 30.11 1020 10 16.0934 0 0
3:15 pm 15:15 Partly Cloudy 82 28 55 13 40 40 W 10 17 30.1 1019 10 16.0934 0 0
3:35 pm 15:35 Mostly Cloudy 82 28 54 12 37 37 NW 7 11 30.1 1019 10 16.0934 0 0
3:55 pm 15:55 Mostly Cloudy 82 28 55 13 40 40 W 10 17 30.09 1019 10 16.0934 0 0
4:15 pm 16:15 Mostly Cloudy 84 29 55 13 37 37 WNW 13 20 30.08 1019 10 16.0934 0 0
4:35 pm 16:35 Partly Cloudy 82 28 54 12 37 37 NNW 7 11 30.08 1019 10 16.0934 0 0
4:55 pm 16:55 Partly Cloudy 81 27 54 12 39 39 NNW 6 9 30.08 1019 10 16.0934 0 0
5:15 pm 17:15 Mostly Cloudy 84 29 55 13 37 37 WNW 8 13 30.07 1018 10 16.0934 0 0
5:35 pm 17:35 Partly Cloudy 82 28 54 12 37 37 NNW 8 13 30.07 1018 10 16.0934 0 0
5:55 pm 17:55 Sunny 84 29 55 13 37 37 WNW 12 19 30.06 1018 10 16.0934 0 0
6:15 pm 18:15 Partly Cloudy 82 28 54 12 37 37 NNW 8 13 30.06 1018 10 16.0934 0 0
6:35 pm 18:35 Partly Cloudy 82 28 54 12 37 37 NNW 9 15 30.06 1018 10 16.0934 0 0
6:55 pm 18:55 Sunny 82 28 54 12 37 37 NNW 8 13 30.07 1018 10 16.0934 0 0
7:15 pm 19:15 Sunny 82 28 54 12 37 37 NNW 14 22 30.07 1018 10 16.0934 0 0
7:35 pm 19:35 Sunny 81 27 54 12 39 39 NNW 8 13 30.08 1019 10 16.0934 0 0
7:55 pm 19:55 Sunny 79 26 54 12 42 42 NNW 7 11 30.08 1019 10 16.0934 0 0
8:15 pm 20:15 Sunny 79 26 54 12 42 42 NNW 8 13 30.08 1019 10 16.0934 0 0
8:35 pm 20:35 Sunny 77 25 54 12 44 44 NNW 7 11 30.08 1019 10 16.0934 0 0
8:55 pm 20:55 Clear 75 24 54 12 47 47 NNW 8 13 30.1 1019 10 16.0934 0 0
9:15 pm 21:15 Clear 73 23 54 12 50 50 NNW 9 15 30.1 1019 10 16.0934 0 0
9:35 pm 21:35 Clear 73 23 54 12 50 50 NNW 10 17 30.11 1020 10 16.0934 0 0
9:55 pm 21:55 Clear 73 23 52 11 47 47 N 9 15 30.12 1020 10 16.0934 0 0
10:15 pm 22:15 Clear 73 23 54 12 50 50 NNW 8 13 30.12 1020 10 16.0934 0 0
10:35 pm 22:35 Clear 72 22 54 12 53 53 NNW 9 15 30.13 1020 10 16.0934 0 0
10:55 pm 22:55 Clear 72 22 52 11 50 50 N 8 13 30.13 1020 10 16.0934 0 0
11:15 pm 23:15 Clear 72 22 52 11 50 50 N 10 17 30.13 1020 10 16.0934 0 0
11:35 pm 23:35 Clear 72 22 52 11 50 50 N 12 19 30.13 1020 10 16.0934 0 0
11:55 pm 23:55 Clear 72 22 50 10 47 47 N 8 13 30.13 1020 10 16.0934 0 0

Powered by AerisWeather